Time,TemperatureF,DewpointF,PressureIn,WindDirection,WindDirectionDegrees,WindSpeedMPH,WindSpeedGustMPH,Humidity,HourlyPrecipIn,Conditions,Clouds,dailyrainin,SoftwareType,DateUTC
2013-09-05 00:13:00,-999.0,-99.9,29.96,WSW,251,5.0,8.0,-999,-99.99,,,-99.99,,2013-09-05 04:13:00,
2013-09-05 00:24:00,-999.0,-99.9,29.96,SW,215,7.0,10.0,-999,-99.99,,,-99.99,,2013-09-05 04:24:00,
2013-09-05 00:44:00,-999.0,-99.9,29.95,WSW,245,3.0,5.0,-999,-99.99,,,-99.99,,2013-09-05 04:44:00,
2013-09-05 00:53:00,-999.0,-99.9,29.95,SSW,213,6.0,9.0,-999,-99.99,,,-99.99,,2013-09-05 04:53:00,
2013-09-05 01:43:00,-999.0,-99.9,29.94,SW,223,3.0,8.0,-999,-99.99,,,-99.99,,2013-09-05 05:43:00,
2013-09-05 01:52:00,-999.0,-99.9,29.94,SW,222,5.0,10.0,-999,-99.99,,,-99.99,,2013-09-05 05:52:00,
2013-09-05 02:02:00,-999.0,-99.9,29.94,SW,223,5.0,9.0,-999,-99.99,,,-99.99,,2013-09-05 06:02:00,
2013-09-05 02:52:00,67.0,-99.9,29.93,North,-999,-999.0,-999.0,-999,-99.99,,,-99.99,,2013-09-05 06:52:00,
2013-09-05 03:52:00,-999.0,-99.9,29.92,SW,228,2.0,6.0,-999,-99.99,,,-99.99,,2013-09-05 07:52:00,
2013-09-05 04:03:00,-999.0,-99.9,29.92,SW,221,3.0,7.0,-999,-99.99,,,-99.99,,2013-09-05 08:03:00,
2013-09-05 04:12:00,-999.0,-99.9,29.92,SW,219,2.0,3.0,-999,-99.99,,,-99.99,,2013-09-05 08:12:00,
2013-09-05 04:32:00,-999.0,-99.9,29.92,SW,221,4.0,9.0,-999,-99.99,,,-99.99,,2013-09-05 08:32:00,
2013-09-05 04:42:00,-999.0,-99.9,29.92,SW,214,4.0,8.0,-999,-99.99,,,-99.99,,2013-09-05 08:42:00,
2013-09-05 05:11:00,-999.0,-99.9,29.92,SW,216,6.0,9.0,-999,-99.99,,,-99.99,,2013-09-05 09:11:00,
2013-09-05 05:22:00,-999.0,-99.9,29.92,SW,217,4.0,9.0,-999,-99.99,,,-99.99,,2013-09-05 09:22:00,
2013-09-05 05:33:00,-999.0,-99.9,29.92,SSW,211,3.0,6.0,-999,-99.99,,,-99.99,,2013-09-05 09:33:00,
2013-09-05 05:43:00,-999.0,-99.9,29.93,SW,228,3.0,6.0,-999,-99.99,,,-99.99,,2013-09-05 09:43:00,
2013-09-05 06:13:00,-999.0,-99.9,29.93,SW,235,4.0,8.0,-999,-99.99,,,-99.99,,2013-09-05 10:13:00,
2013-09-05 06:23:00,-999.0,-99.9,29.94,SW,228,4.0,8.0,-999,-99.99,,,-99.99,,2013-09-05 10:23:00,
2013-09-05 06:33:00,-999.0,-99.9,29.94,SW,219,4.0,7.0,-999,-99.99,,,-99.99,,2013-09-05 10:33:00,
2013-09-05 06:53:00,-999.0,-99.9,29.94,SSW,213,3.0,5.0,-999,-99.99,,,-99.99,,2013-09-05 10:53:00,
2013-09-05 07:03:00,-999.0,-99.9,29.94,SW,218,3.0,6.0,-999,-99.99,,,-99.99,,2013-09-05 11:03:00,
2013-09-05 07:22:00,-999.0,-99.9,29.95,SW,216,2.0,4.0,-999,-99.99,,,-99.99,,2013-09-05 11:22:00,
2013-09-05 07:34:00,-999.0,-99.9,29.95,SW,225,3.0,6.0,-999,-99.99,,,-99.99,,2013-09-05 11:34:00,
2013-09-05 07:52:00,-999.0,-99.9,29.95,SSW,212,3.0,6.0,-999,-99.99,,,-99.99,,2013-09-05 11:52:00,
2013-09-05 08:01:00,-999.0,-99.9,29.95,SW,231,3.0,8.0,-999,-99.99,,,-99.99,,2013-09-05 12:01:00,
2013-09-05 08:42:00,-999.0,-99.9,29.96,West,266,5.0,9.0,-999,-99.99,,,-99.99,,2013-09-05 12:42:00,
2013-09-05 09:12:00,-999.0,-99.9,29.97,WNW,288,7.0,11.0,-999,-99.99,,,-99.99,,2013-09-05 13:12:00,
2013-09-05 09:22:00,-999.0,-99.9,29.97,WNW,286,8.0,11.0,-999,-99.99,,,-99.99,,2013-09-05 13:22:00,
2013-09-05 09:32:00,-999.0,-99.9,29.97,West,281,8.0,12.0,-999,-99.99,,,-99.99,,2013-09-05 13:32:00,
2013-09-05 09:42:00,-999.0,-99.9,29.97,WNW,290,7.0,11.0,-999,-99.99,,,-99.99,,2013-09-05 13:42:00,
2013-09-05 09:53:00,-999.0,-99.9,29.97,West,272,7.0,9.0,-999,-99.99,,,-99.99,,2013-09-05 13:53:00,
2013-09-05 10:12:00,-999.0,-99.9,29.97,WNW,293,7.0,11.0,-999,-99.99,,,-99.99,,2013-09-05 14:12:00,
2013-09-05 10:32:00,-999.0,-99.9,29.96,WNW,290,6.0,9.0,-999,-99.99,,,-99.99,,2013-09-05 14:32:00,
2013-09-05 10:42:00,-999.0,-99.9,29.97,NW,324,10.0,15.0,-999,-99.99,,,-99.99,,2013-09-05 14:42:00,
2013-09-05 10:52:00,-999.0,-99.9,29.97,NW,311,7.0,9.0,-999,-99.99,,,-99.99,,2013-09-05 14:52:00,
2013-09-05 11:11:00,-999.0,-99.9,29.96,NW,321,9.0,12.0,-999,-99.99,,,-99.99,,2013-09-05 15:11:00,
2013-09-05 11:34:00,-999.0,-99.9,29.97,NNW,335,10.0,13.0,-999,-99.99,,,-99.99,,2013-09-05 15:34:00,
2013-09-05 11:54:00,-999.0,-99.9,29.97,NW,311,8.0,12.0,-999,-99.99,,,-99.99,,2013-09-05 15:54:00,
2013-09-05 12:03:00,-999.0,-99.9,29.97,NNW,328,10.0,12.0,-999,-99.99,,,-99.99,,2013-09-05 16:03:00,
2013-09-05 12:13:00,-999.0,-99.9,29.97,NNW,336,11.0,13.0,-999,-99.99,,,-99.99,,2013-09-05 16:13:00,
2013-09-05 12:24:00,-999.0,-99.9,29.97,North,349,9.0,11.0,-999,-99.99,,,-99.99,,2013-09-05 16:24:00,
2013-09-05 12:33:00,-999.0,-99.9,29.97,NNW,348,8.0,10.0,-999,-99.99,,,-99.99,,2013-09-05 16:33:00,
2013-09-05 12:43:00,-999.0,-99.9,29.97,North,349,7.0,10.0,-999,-99.99,,,-99.99,,2013-09-05 16:43:00,
2013-09-05 12:54:00,-999.0,-99.9,29.97,NW,319,8.0,12.0,-999,-99.99,,,-99.99,,2013-09-05 16:54:00,
2013-09-05 13:03:00,-999.0,-99.9,29.97,NNW,327,11.0,16.0,-999,-99.99,,,-99.99,,2013-09-05 17:03:00,
2013-09-05 13:34:00,-999.0,-99.9,29.97,NW,315,11.0,16.0,-999,-99.99,,,-99.99,,2013-09-05 17:34:00,
2013-09-05 13:43:00,-999.0,-99.9,29.97,NW,318,9.0,16.0,-999,-99.99,,,-99.99,,2013-09-05 17:43:00,
2013-09-05 13:52:00,74.0,-99.9,29.97,North,-999,-999.0,-999.0,-999,-99.99,,,-99.99,,2013-09-05 17:52:00,
2013-09-05 14:43:00,-999.0,-99.9,29.98,WNW,301,8.0,11.0,-999,-99.99,,,-99.99,,2013-09-05 18:43:00,
2013-09-05 15:32:00,-999.0,-99.9,29.98,WNW,303,12.0,16.0,-999,-99.99,,,-99.99,,2013-09-05 19:32:00,
2013-09-05 16:03:00,-999.0,-99.9,29.98,NW,311,9.0,14.0,-999,-99.99,,,-99.99,,2013-09-05 20:03:00,
2013-09-05 16:43:00,-999.0,-99.9,29.98,NNW,347,15.0,19.0,-999,-99.99,,,-99.99,,2013-09-05 20:43:00,
2013-09-05 17:02:00,-999.0,-99.9,29.98,North,353,16.0,19.0,-999,-99.99,,,-99.99,,2013-09-05 21:02:00,
2013-09-05 17:22:00,-999.0,-99.9,29.99,NW,318,13.0,18.0,-999,-99.99,,,-99.99,,2013-09-05 21:22:00,
2013-09-05 17:44:00,-999.0,-99.9,30.00,NNW,333,17.0,20.0,-999,-99.99,,,-99.99,,2013-09-05 21:44:00,
2013-09-05 18:33:00,-999.0,-99.9,30.01,NNW,330,20.0,23.0,-999,-99.99,,,-99.99,,2013-09-05 22:33:00,
2013-09-05 18:53:00,-999.0,-99.9,30.02,NW,325,17.0,22.0,-999,-99.99,,,-99.99,,2013-09-05 22:53:00,
2013-09-05 19:22:00,-999.0,-99.9,30.03,NNW,343,18.0,22.0,-999,-99.99,,,-99.99,,2013-09-05 23:22:00,
2013-09-05 19:34:00,-999.0,-99.9,30.03,NNW,337,15.0,21.0,-999,-99.99,,,-99.99,,2013-09-05 23:34:00,
2013-09-05 19:53:00,-999.0,-99.9,30.04,NNW,333,17.0,21.0,-999,-99.99,,,-99.99,,2013-09-05 23:53:00,
2013-09-05 20:02:00,-999.0,-99.9,30.04,NNW,330,14.0,18.0,-999,-99.99,,,-99.99,,2013-09-06 00:02:00,
2013-09-05 20:22:00,-999.0,-99.9,30.05,NNW,340,13.0,17.0,-999,-99.99,,,-99.99,,2013-09-06 00:22:00,
2013-09-05 20:42:00,-999.0,-99.9,30.06,North,351,15.0,18.0,-999,-99.99,,,-99.99,,2013-09-06 00:42:00,
2013-09-05 20:52:00,71.0,-99.9,30.06,North,-999,-999.0,-999.0,-999,-99.99,,,-99.99,,2013-09-06 00:52:00,
2013-09-05 21:02:00,-999.0,-99.9,30.07,NNW,345,14.0,16.0,-999,-99.99,,,-99.99,,2013-09-06 01:02:00,
2013-09-05 21:22:00,-999.0,-99.9,30.07,North,1,13.0,15.0,-999,-99.99,,,-99.99,,2013-09-06 01:22:00,
2013-09-05 21:32:00,-999.0,-99.9,30.08,North,6,11.0,13.0,-999,-99.99,,,-99.99,,2013-09-06 01:32:00,
2013-09-05 21:52:00,-999.0,-99.9,30.08,NNE,24,11.0,13.0,-999,-99.99,,,-99.99,,2013-09-06 01:52:00,
2013-09-05 22:22:00,-999.0,-99.9,30.10,NNE,15,10.0,13.0,-999,-99.99,,,-99.99,,2013-09-06 02:22:00,
2013-09-05 22:33:00,-999.0,-99.9,30.10,NNE,13,10.0,12.0,-999,-99.99,,,-99.99,,2013-09-06 02:33:00,
2013-09-05 22:42:00,-999.0,-99.9,30.10,NNE,19,9.0,12.0,-999,-99.99,,,-99.99,,2013-09-06 02:42:00,
2013-09-05 23:02:00,-999.0,-99.9,30.11,NNE,27,8.0,10.0,-999,-99.99,,,-99.99,,2013-09-06 03:02:00,
2013-09-05 23:11:00,-999.0,-99.9,30.11,NNE,24,8.0,9.0,-999,-99.99,,,-99.99,,2013-09-06 03:11:00,
2013-09-05 23:55:00,-999.0,-99.9,30.13,NNE,30,9.0,13.0,-999,-99.99,,,-99.99,,2013-09-06 03:55:00,